Regional Weather Roundup
Issued by NWS

Home | Current Version | Previous Version | Graphics & Text | Print | Product List | Glossary On
Versions: 1 2 3 4 5 6 7 8 9 10 11 12 13 14 15 16 17 18 19 20 21 22 23 24 25 26 27 28 29 30 31 32 33 34 35 36 37 38 39 40 41 42 43 44 45 46 47 48 49 50
000
ASUS43 KMPX 272201
RWRMN
WEATHER ROUNDUP FOR MINNESOTA
NATIONAL WEATHER SERVICE TWIN CITIES/CHANHASSEN MN
500 PM CDT MON JUL 27 2015


NOTE: "FAIR" INDICATES FEW OR NO CLOUDS BELOW 12,000 FEET WITH NO
SIGNIFICANT WEATHER AND/OR OBSTRUCTIONS TO VISIBILITY. N/A MEANS
CURRENT SKY AND/OR WEATHER CONDITIONS ARE NOT AVAILABLE.

MNZ060>063-068>070-272300-
   Twin Cities Metro

CITY           SKY/WX    TMP DP  RH WIND       PRES   REMARKS
TWIN CITIES    FAIR      84  71  65 SE13      29.90F
ST PAUL        PTSUNNY   83  71  67 SE12      29.91F
CRYSTAL        PTSUNNY   87  71  58 E12       29.89F HX  93
BLAINE         MOSUNNY   86  72  62 SE12G17   29.91F HX  92
LAKEVILLE      FAIR      82  72  69 SE8G16    29.91F
EDEN PRAIRIE   PTSUNNY   85  72  65 SE14      29.89F HX  91
SOUTH ST PAUL  PTSUNNY   84  69  60 SE8       29.91F
LAKE ELMO      FAIR      82  72  69 SE8       29.93F
$$
MNZ001>005-007-008-013>017-022>024-027-028-272300-
   Northwest Minnesota

CITY           SKY/WX    TMP DP  RH WIND       PRES   REMARKS
BEMIDJI        FAIR      83  69  64 SE12      29.88F
HALLOCK        FAIR      88  72  58 S15       29.79F HX  94
ROSEAU         FAIR      86  73  66 S12       29.85S HX  93
WARROAD        FAIR      88  72  58 SE10      29.86S HX  94
THIEF RVR FALL FAIR      81  72  74 SE7       29.84F
CROOKSTON      LGT RAIN  81  73  78 SE7       29.82F
FOSSTON        FAIR      84  68  58 SE13      29.86F
DETROIT LAKES    N/A     86  66  51 S14G20    29.87S
MOORHEAD       FAIR      86  72  62 SE12G18   29.80F HX  92
PARK RAPIDS    PTSUNNY   89  68  49 SE18      29.88F HX  93
MAHNOMEN       FAIR      82  71  69 S6        29.85F
$$
MNZ006-009>011-018-025>026-272300-
   North Central Minnesota

CITY           SKY/WX    TMP DP  RH WIND       PRES   REMARKS
BAUDETTE       FAIR      87  65  47 S8        29.87F
FLAG ISLAND    FAIR      82  70  65 S7        29.86F
INTL FALLS     FAIR      87  65  47 SE9       29.89F
WASKISH        FAIR      86  70  58 SE9       29.88F HX  90
BIG FORK       FAIR      88  64  45 S8        29.92F
LONGVILLE      FAIR      84  68  58 S8G17     29.90F
GRAND RAPIDS   FAIR      84  66  54 S13       29.92F
CRANE LAKE     FAIR      88  57  35 S7        29.93F
ORR            FAIR      90  52  27 SE7       29.90S
COOK           FAIR      88  57  35 S9        29.93F
WALKER         MOCLDY    83  69  64 S6        29.90S
$$
MNZ012-019>021-037-272300-
   Northeast Minnesota

CITY           SKY/WX    TMP DP  RH WIND       PRES   REMARKS
DULUTH         FAIR      84  63  49 SE10      29.95F
ELY            FAIR      88  52  29 S10G16    29.95F
HIBBING        FAIR      85  65  51 VRB7      29.93F
EVELETH        FAIR      84  61  45 S9        29.96S
DULUTH HARBOR  FAIR      79  72  78 NE13      29.92F
TWO HARBORS    FAIR      88  70  55 E5        29.94F HX  92
SILVER BAY     FAIR      84  63  48 E5        29.94F
GRAND MARAIS     N/A     69  63  81 CALM      29.95F
G MARAIS ARPRT   N/A     81  48  32 S7        30.03F
$$
MNZ029>031-032-039>041-046>048-054>057-064-272300-
   West Central Minnesota

CITY           SKY/WX    TMP DP  RH WIND       PRES   REMARKS
FERGUS FALLS   FAIR      88  70  55 S17       29.81F HX  92
WHEATON        FAIR      82  72  69 SE16G23   29.82F
MORRIS         FAIR      84  75  74 SE14      29.83F HX  92
ALEXANDRIA     FAIR      85  70  60 S15       29.89F
ELBOW LAKE     FAIR      84  72  66 S16       29.84F HX  90
WADENA         FAIR      86  68  54 SE12G20   29.87F
GLENWOOD       FAIR      86  72  62 SE14G21   29.89F HX  92
APPLETON       PTSUNNY   88  73  62 SE10      29.82F HX  96
BENSON         FAIR      84  72  65 S12G20    29.85F
ORTONVILLE     PTSUNNY   84  73  70 SE9G18    29.82F HX  91
MADISON        FAIR      84  75  74 SE14      29.82F HX  92
WILLMAR        PTSUNNY   84  73  70 SE16G22   29.88F HX  91
$$
MNZ033>034-036-042>043-049>051-058-059-272300-
   Central Minnesota

CITY           SKY/WX    TMP DP  RH WIND       PRES   REMARKS
ST CLOUD       FAIR      87  71  58 S13       29.88F HX  93
SAUK CENTRE    FAIR      83  73  69 SE13G18   29.89S
PAYNESVILLE    FAIR      81  72  73 E9        29.89S
AITKIN         PTSUNNY   88  72  58 S12       29.90F HX  94
PINE RIVER     PTSUNNY   84  72  65 SE8G17    29.93F
BRAINERD       PTSUNNY   84  69  60 S10G18    29.90F
STAPLES        FAIR      84  68  58 S12       29.88F
LONG PRAIRIE   FAIR      86  70  58 SE13G18   29.89F HX  90
LITTLE FALLS   FAIR      84  68  58 SE10G16   29.89F
LITCHFIELD     FAIR      82  75  78 SE10G17   29.88F
BUFFALO        FAIR      84  70  62 SE10      29.90F
MAPLE LAKE     FAIR      84  75  74 SE8       29.90F HX  92
$$
MNZ037-044-045-052-053-272300-
   East Central Minnesota

CITY           SKY/WX    TMP DP  RH WIND       PRES   REMARKS
PRINCETON      FAIR      88  72  58 SE13      29.89F HX  94
MORA           FAIR      82  68  61 SE8       29.93F
CAMBRIDGE        N/A     88  72  58 SE8       29.89F HX  94
RUSH CITY      FAIR      82  69  63 SE8       29.92F
MOOSE LAKE     FAIR      82  64  54 SE7       29.91F
HINCKLEY       MOCLDY    84  70  61 SE10      29.92F
CLOQUET        FAIR      82  63  51 S7        29.94F
MCGREGOR       FAIR      86  68  54 S12       29.92F
$$
MNZ071>073-080-081-089-090-097-098-272300-
   Southwest Minnesota

CITY           SKY/WX    TMP DP  RH WIND       PRES   REMARKS
MONTEVIDEO     FAIR      88  73  62 S12G21    29.86F HX  96
GRANITE FALLS  FAIR      84  73  69 SE13      29.86F HX  91
CANBY          FAIR      88  70  55 SE10      29.83F HX  92
MARSHALL       FAIR      88  66  48 S15       29.85F HX  90
REDWOOD FALLS  FAIR      85  72  65 S14       29.85F HX  91
OLIVIA         FAIR      81  70  69 SE13      29.86F
PIPESTONE      FAIR      84  70  61 SE10      29.85F
WINDOM         FAIR      84  68  58 SE13      29.87F
WORTHINGTON    FAIR      82  70  65 SE12      29.87S
JACKSON        FAIR      84  70  61 SE12      29.88F
SLAYTON        FAIR      83  70  65 SE10      29.87F
$$
MNZ065>067-074>077-082>085-091>093-272300-
   South Central Minnesota

CITY           SKY/WX    TMP DP  RH WIND       PRES   REMARKS
MANKATO        FAIR      82  72  69 SE15G21   29.90S
NEW ULM        FAIR      84  73  70 SE12      29.87F HX  91
ST JAMES       FAIR      84  75  74 SE16      29.88S HX  92
FAIRMONT       FAIR      82  66  57 SE15      29.87F
GLENCOE        FAIR      85  75  72 SE10      29.89F HX  94
FARIBAULT      PTSUNNY   84  73  70 SE14      29.92S HX  91
OWATONNA       FAIR      82  72  69 SE17      29.93R
WASECA         PTSUNNY   79  70  73 SE14G21   29.93S
ALBERT LEA     FAIR      81  73  78 SE10      29.92F
$$
MNZ078>079-086>088-094>096-272300-
   Southeast Minnesota

CITY           SKY/WX    TMP DP  RH WIND       PRES   REMARKS
ROCHESTER      PTSUNNY   80  72  76 S10       29.96S
RED WING       FAIR      86  70  58 SE13      29.91F HX  90
STANTON        FAIR      84  70  62 SE12G17   29.91S
DODGE CENTER   FAIR      81  72  74 S13       29.95S
WINONA         FAIR      82  68  61 SE12      29.94S
AUSTIN         FAIR      82  72  69 S10       29.94S
PRESTON        FAIR      80  70  71 S13       29.97S
$$
ABBREVIATIONS USED IN REMARKS
   TC - TEMPERATURES IN CELSIUS
  WCI - WIND CHILL INDEX
   HX - HEAT INDEX
  VSB - VISIBILITY
$$



USA.gov is the U.S. government's official web portal to all federal, state and local government web resources and services.